Weather History for KTOP - August, 2014

Change the Weather History Date:

Monday, August 11, 2014

  Actual Average Record
Temperature  
Mean Temperature 75 °F 78 °F  
Max Temperature 85 °F 89 °F 110 °F (1934)
Min Temperature 64 °F 67 °F 51 °F (2004)
Degree Days  
Heating Degree Days 0 0  
Month to date heating degree days 0 0  
Since 1 June heating degree days 0 8  
Since 1 July heating degree days 0 0  
Cooling Degree Days 10 13  
Month to date cooling degree days 161 152  
Year to date cooling degree days 1084 994  
Since 1 June cooling degree days 867 868  
Growing Degree Days 25 (Base 50)    
Moisture  
Dew Point 63 °F    
Average Humidity 70    
Maximum Humidity 100    
Minimum Humidity 40    
Precipitation  
Precipitation 0.00 in 0.13 in 2.09 in (1941)
Month to date precipitation 2.23 1.47  
Year to date precipitation 16.88 23.80  
Snow  
Snow 0.00 in 0.00 in 0.00 in ()
Month to date snowfall T 0.0  
Year to date snowfall 23.1 11.3  
Since 1 July snowfall T 0.0  
Snow Depth 0.00 in    
Sea Level Pressure  
Sea Level Pressure 30.06 in    
Wind  
Wind Speed 8 mph (NW)    
Max Wind Speed 21 mph    
Max Gust Speed 27 mph    
Visibility 10 miles    
Events      
T = Trace of Precipitation, MM = Missing Value Source: NWS Daily Summary

Daily Weather History Graph

Daily Weather History Graph

Search for Another Location

Airport or City:

Trip Planner

Search our weather history database for the weather conditions in past years. The results will help you decide how hot, cold, wet, or windy it might be!

Date:

Astronomy

Aug. 11, 2014 Rise Set
Actual Time 6:32 AM CDT 8:22 PM CDT
Civil Twilight 6:03 AM CDT 8:51 PM CDT
Nautical Twilight 5:28 AM CDT 9:26 PM CDT
Astronomical Twilight 4:50 AM CDT 10:03 PM CDT
Moon 8:52 PM CDT (8/11) 7:37 AM CDT (8/11)
Length of Visible Light 14h 48m
Length of Day
13h 50m
Full, 99% of the Moon is Illuminated
Aug 11
Full
Aug 17
Last Quarter
Aug 25
New
Sep 2
First Quarter
Sep 8
Full

Hourly Weather History & Observations

Time (CDT) Temp. Heat Index Dew Point Humidity Pressure Visibility Wind Dir Wind Speed Gust Speed Precip Events Conditions
12:53 AM 69.1 °F - 68.0 °F 96% 30.04 in 10.0 mi Calm Calm - N/A   Clear
1:53 AM 70.0 °F - 68.0 °F 93% 30.03 in 10.0 mi Calm Calm - N/A   Scattered Clouds
2:53 AM 68.0 °F - 66.9 °F 96% 30.02 in 10.0 mi West 4.6 mph - N/A   Clear
3:53 AM 68.0 °F - 68.0 °F 100% 30.02 in 10.0 mi West 3.5 mph - N/A   Clear
4:53 AM 66.9 °F - 66.9 °F 100% 30.02 in 9.0 mi Calm Calm - N/A   Clear
5:53 AM 68.0 °F - 66.9 °F 96% 30.02 in 10.0 mi West 3.5 mph - N/A   Clear
6:53 AM 68.0 °F - 66.9 °F 96% 30.04 in 10.0 mi West 4.6 mph - N/A   Clear
7:53 AM 70.0 °F - 69.1 °F 97% 30.06 in 10.0 mi WNW 6.9 mph - N/A   Clear
8:53 AM 73.9 °F - 70.0 °F 87% 30.07 in 10.0 mi NW 6.9 mph - N/A   Partly Cloudy
9:53 AM 75.9 °F - 69.1 °F 79% 30.09 in 10.0 mi NNW 12.7 mph - N/A   Partly Cloudy
10:53 AM 80.1 °F 82.9 °F 69.1 °F 69% 30.09 in 10.0 mi North 12.7 mph - N/A   Partly Cloudy
11:53 AM 80.1 °F 82.7 °F 68.0 °F 67% 30.09 in 10.0 mi NNW 11.5 mph - N/A   Mostly Cloudy
12:53 PM 82.9 °F 84.0 °F 63.0 °F 51% 30.08 in 10.0 mi NNW 13.8 mph 21.9 mph N/A   Clear
1:53 PM 82.9 °F 83.2 °F 60.1 °F 46% 30.07 in 10.0 mi NW 10.4 mph 20.7 mph N/A   Partly Cloudy
2:53 PM 84.0 °F 83.5 °F 57.9 °F 41% 30.06 in 10.0 mi NW 15.0 mph - N/A   Partly Cloudy
3:53 PM 82.9 °F 82.6 °F 57.9 °F 42% 30.06 in 10.0 mi NNW 12.7 mph 24.2 mph N/A   Clear
4:53 PM 82.0 °F 81.7 °F 57.0 °F 42% 30.06 in 10.0 mi North 15.0 mph 24.2 mph N/A   Clear
5:53 PM 81.0 °F 81.0 °F 57.0 °F 44% 30.05 in 10.0 mi NNW 19.6 mph 26.5 mph N/A   Clear
6:53 PM 79.0 °F - 55.9 °F 45% 30.04 in 10.0 mi North 10.4 mph 23.0 mph N/A   Clear
7:53 PM 75.0 °F - 55.9 °F 51% 30.05 in 10.0 mi NNW 10.4 mph - N/A   Clear
8:53 PM 70.0 °F - 57.0 °F 63% 30.06 in 10.0 mi NNW 8.1 mph - N/A   Clear
9:53 PM 66.9 °F - 57.0 °F 70% 30.08 in 10.0 mi NW 4.6 mph - N/A   Clear
10:53 PM 66.0 °F - 57.0 °F 73% 30.09 in 10.0 mi NW 4.6 mph - N/A   Clear
11:53 PM 66.9 °F - 57.0 °F 70% 30.10 in 10.0 mi WNW 3.5 mph - N/A   Clear